SCP
0 0 0 0 0 0 0 0 0 0 0 0 0 0 0 0 0 0 0 0 0 0 0 0 0 0 0 0 0 0 0 0 0 0 0 0 0 0 0 0 0 0 -0 0 0 0 0 -0 0 0 0 0 0 -0
0 0 0 0 0 0 0 0 0 0 0 0 0 0 0 0 0 0 0 0 0 0 0 0 0 -0 -0 -0 0 0 0 0 0 0 0 0 0 0 0 0 0 0 0 0 0 0 0 0 0 0 0 0 0 -0
0 0 0 0 0 0 0 0 0 0 0 0 0 0 0 0 0 0 0 0 0 0 0 0 0 0 0 0 0 0 0 0 0 0 0 0 0 0 0 0 0 -0 0 0 0 0 0 0 0 0 0 0 -0 -0
0 0 0 0 0 0 0 0 0 0 0 0 0 0 0 0 0 0 0 0 0 0 0 0 0 0 0 0 0 0 -0 0 0 0 0 0 0 0 0 0 0 0 0 0 0 0 -0 0 0 0 0 -0 -0 -0
0 0 0 0 0 0 0 0 0 0 0 0 0 0 0 0 0 0 0 0 0 0 0 0 0 0 0 0 0 0 0 0 0 0 0 0 0 0 0 0 0 0 0 -0 0 -0 0 0 0 0 0 -0 -0 -0
0 0 0 0 0 0 0 0 0 0 0 0 0 0 0 0 0 0 0 0 0 0 0 0 0 0 0 0 0 0 0 0 0 0 0 0 0 0 0 0 0 0 0 0 0 0 0 0 0 0 0 -0 -0 -0
0 0 0 0 0 0 0 0 0 0 0 0 0 0 0 0 0 0 0 0 0 0 0 0 0 0 0 0 0 0 0 0 0 0 0 0 0 0 0 0 0 -0 0 -0 -0 -0 -0 -0 0 -0 0 -0 -0 0
0 0 0 0 0 0 0 0 0 0 0 0 0 0 0 0 0 0 0 0 0 0 0 0 0 0 0 0 0 0 0 0 0 0 0 0 0 0 -0 -0 -0 0 -0 -0 -0 -0 -0 0 0 -0 0 -0 -0 -0
0 0 0 0 0 0 0 0 0 0 0 0 0 0 0 0 0 0 0 0 0 0 0 0 0 0 0 0 0 0 0 0 0 0 0 0 0 0 0 -0 0 0 -0 -0 0 -0 0 0 0 -0 -0 -0 -0 -0
0 0 0 0 0 0 0 0 0 0 0 0 0 0 0 0 0 0 0 0 0 0 0 0 0 0 0 0 0 0 0 0 0 0 0 0 0 0 0 0 0 -0 -0 -0 0 -0 -0 0 0 -0 -0 -0 -0 -0
0 0 0 0 0 0 0 0 0 0 0 0 0 0 0 0 0 0 0 0 0 0 0 0 0 0 0 0 0 0 0 0 0 0 0 0 0 0 0 0 -0 -0 -0 -0 -0 -0 0 0 0 -0 -0 -0 -0 0
0 0 0 0 0 0 0 0 0 0 0 0 0 0 0 0 0 0 0 0 0 0 0 0 0 0 0 0 0 0 0 0 -0 -0 -0 0 0 -0 0 -0 -0 -0 -0 -0 -0 0 0 0 0 -0 -0 -0 0 0
0 0 0 0 0 0 0 0 0 0 0 0 0 0 0 0 0 0 0 0 0 0 0 0 0 0 0 0 0 0 0 -0 -0 -0 0 0 0 -0 -0 -0 -0 -0 0 -0 -0 -0 0 0 0 -0 -0 -0 0 0
0 0 0 0 0 0 0 0 0 0 0 0 0 0 0 0 0 0 0 0 0 0 0 0 0 0 0 0 0 0 -0 -0 -0 0 -0 0 -0 -0 0 -0 -0 -0 0 -0 -0 -0 0 0 0 -0 -0 0 0 0
0 0 0 0 0 0 0 0 0 0 0 0 0 0 0 0 0 0 0 0 0 0 0 0 0 0 0 0 0 0 0 0 0 -0 -0 0 -0 -0 -0 -0 0 -0 -0 -0 -0 -0 0 0 0 -0 0 -0 -0 0
0 0 0 0 0 0 0 0 0 0 0 0 0 0 0 0 0 0 0 0 0 0 0 0 0 0 0 0 0 0 0 -0 -0 -0 0 -0 -0 -0 0 0 -0 -0 -0 -0 -0 -0 -0 0 0 0 0 0 -0 -0
0 0 0 0 0 0 0 0 0 0 0 0 0 0 0 0 0 0 0 0 0 0 0 0 0 0 0 0 0 0 -0 -0 -0 -0 -0 0 -0 -0 0 -0 -0 -0 -0 -0 -0 -0 -0 -0 -0 -0 0 0 0 0
0 0 0 0 0 0 0 0 0 0 0 0 0 0 0 0 0 0 0 0 0 0 0 0 0 0 0 0 0 -0 -0 -0 -0 -0 -0 -0 -0 0 0 -0 -0 -0 -0 -0 -0 -0 -0 -0 -0 -0 -0 0 -0 -0
0 0 0 0 0 0 0 0 0 0 0 0 0 0 0 0 0 0 0 0 0 0 0 0 0 0 0 0 0 0 -0 -0 -0 -0 -0 0 -0 -0 -0 -0 -0 0 0 -0 -0 -0 0 -0 -0 -0 -0 -0 0 0
0 0 0 0 0 0 0 0 0 0 0 0 0 0 0 0 0 0 0 0 0 0 -0 -0 -0 0 0 0 0 0 0 0 0 -0 -0 0 -0 -0 -0 -0 0 0 0 0 0 -0 0 -0 -0 -0 -0 -0 -0 0
0 0 0 0 0 0 0 0 0 0 0 0 0 0 0 0 0 -0 0 0 0 0 -0 0 0 -0 -0 0 0 0 0 0 0 0 0 0 0 -0 -0 -0 -0 0 0 0 0 0 -0 -0 -0 -0 -0 -0 -0 0
0 0 0 0 0 0 0 0 0 0 0 0 0 0 0 0 0 0 -0 0 0 -0 0 -0 -0 0 0 0 0 0 0 0 -0 -0 0 0 0 0 -0 -0 -0 -0 0 0 0 0 0 0 0 -0 -0 -0 -0 -0
-0 -0 0 0 0 0 0 0 0 0 0 0 0 0 0 0 0 -0 0 -0 0 0 -0 -0 -0 -0 -0 -0 -0 -0 0 0 0 0 0 0 0 0 0 -0 -0 -0 -0 0 0 0 0 0 0 0 0 0 -0 -0
0 0 0 0 0 0 0 0 0 0 0 0 0 0 0 -0 -0 -0 0 0 -0 0 0 -0 -0 0 -0 0 0 0 0 0 0 0 0 0 0 0 -0 -0 -0 -0 -0 -0 0 0 0 0 0 0 0 -0 -0 -0
0 0 0 0 0 0 0 0 0 0 0 0 -0 0 -0 -0 -0 -0 -0 -0 -0 0 0 0 0 0 0 0 0 0 0 0 0 0 0 0 0 0 -0 -0 -0 -0 -0 -0 -0 0 0 0 0 0 0 0 0 0
-0 -0 -0 0 0 0 0 0 -0 -0 -0 -0 -0 -0 -0 0 0 0 0 0 -0 -0 -0 -0 -0 0 0 0 0 0 0 0 0 0 0 0 0 0 0 -0 -0 -0 -0 -0 0 0 0 0 0 0 0 0 0 0
-0 0 0 0 0 0 0 0 0 -0 -0 0 0 0 0 0 0 0 0 0 0 0 0 0 0 0 0 0 0 0 0 0 0 0 0 0 0 0 0 0 -0 -0 -0 -0 0 0 0 0 0 0 0 0 0 0
0 0 0 0 0 0 0 0 0 0 0 0 0 0 0 0 0 0 0 0 0 0 0 0 0 0 0 0 0 0 0 0 0 0 0 0 0 0 0 0 0 -0 0 -0 -0 -0 0 0 0 0 0 0 0 0
0 0 0 0 0 0 0 0 0 0 0 0 0 0 0 0 0 0 0 0 0 0 0 0 0 0 0 0 0 0 0 0 0 0 0 -0 0 0 0 0 -0 -0 -0 -0 -0 0 0 0 0 0 0 0 0 0
0 0 0 0 0 0 0 0 0 0 0 0 0 0 0 0 0 0 0 0 0 0 0 0 0 0 0 0 0 0 0 0 0 0 0 0 0 0 0 0 0 0 0 -0 -0 0 0 0 0 0 0 0 0 0
0 0 0 0 0 0 0 0 0 0 0 0 0 0 0 0 0 0 0 0 0 0 0 0 0 0 0 0 0 0 0 0 0 0 0 0 0 0 0 0 0 0 0 0 0 0 0 0 0 0 0 0 0 0
0 0 0 0 0 0 0 0 0 0 0 0 0 0 0 0 0 0 0 0 0 0 0 0 0 0 0 0 0 0 0 0 0 0 0 0 0 0 0 0 0 0 0 0 0 0 0 0 0 0 0 0 0 0
0 0 0 0 0 0 0 0 0 0 0 0 0 0 0 0 0 0 0 -0 0 0 0 0 0 0 0 -0 -0 0 0 0 0 0 0 -0 -0 -0 0 0 0 0 0 0 0 0 0 0 0 0 0 0 0 0
Wind_Speed_500mb
37 34 32 35 34 34 34 35 35 35 34 33 32 32 34 33 31 34 24 17 20 21 48 47 40 39 30 31 14 25 21 7 9 7 7 7 8 9 16 23 25 14 12 15 15 30 19 54 33 14 26 60 77 86
32 29 32 34 36 35 34 34 35 36 36 34 34 33 32 31 24 27 25 15 17 33 44 52 65 63 62 55 47 21 18 16 8 7 4 7 9 8 12 12 22 9 9 15 14 20 57 63 39 34 64 67 82 86
32 30 34 33 32 33 33 33 33 34 33 33 34 34 34 32 24 17 32 29 26 29 60 21 17 13 19 28 30 28 22 22 14 21 14 6 13 5 9 17 32 21 33 18 30 23 41 51 47 63 69 74 90 89
35 31 31 32 32 32 32 33 33 34 34 34 34 34 34 33 31 27 25 19 27 20 15 7 14 40 47 45 37 44 52 33 25 16 7 6 7 11 9 24 30 34 29 26 33 43 45 38 56 66 77 88 81 88
34 31 31 31 30 31 32 33 34 35 35 36 35 34 33 33 35 35 25 22 23 19 12 42 59 13 15 14 20 30 42 41 33 10 9 7 13 16 16 22 19 17 21 18 26 27 20 48 69 71 72 82 85 79
32 30 30 29 29 29 32 34 35 37 36 35 34 34 34 32 33 25 9 6 12 8 16 10 27 14 16 18 26 28 31 28 21 12 12 15 32 14 6 10 18 20 24 27 15 43 50 54 64 63 67 78 77 67
31 30 29 28 28 30 32 34 37 40 39 38 36 34 35 35 32 13 12 8 16 21 11 15 12 6 24 19 8 9 19 16 18 10 14 24 34 17 6 13 2 30 31 32 28 43 30 43 49 67 66 73 67 53
30 29 28 27 28 30 33 35 38 40 38 36 36 34 35 37 33 24 13 13 15 15 12 7 11 19 8 13 15 9 13 16 18 12 14 18 6 14 10 21 21 28 33 22 41 26 32 39 49 61 67 73 69 60
28 28 27 26 27 29 33 36 37 36 34 33 31 31 27 7 6 6 13 17 19 15 10 8 9 10 18 20 23 16 11 8 15 10 9 8 6 10 16 31 29 25 28 38 39 32 42 36 50 57 64 72 65 59
27 27 26 25 26 28 31 34 34 32 28 26 22 5 7 9 10 14 10 8 11 11 16 11 14 11 23 17 9 15 10 7 6 13 10 8 8 12 24 19 19 26 29 33 38 37 44 46 51 55 58 61 54 46
27 26 24 24 25 26 28 29 29 28 20 11 7 7 14 15 11 8 8 11 10 8 12 10 17 17 14 8 5 8 8 8 6 2 5 7 3 22 18 17 21 23 24 25 24 28 29 28 38 47 51 55 50 39
26 25 24 23 23 22 21 23 24 16 12 14 19 24 14 5 8 8 7 8 10 5 7 8 14 23 13 10 8 9 7 5 10 3 5 2 11 31 19 21 22 22 22 24 28 30 27 26 33 38 43 49 48 40
24 22 21 20 20 17 17 22 21 19 18 11 3 6 6 7 9 9 11 8 5 5 4 14 17 10 7 12 11 6 9 12 9 4 5 7 29 38 21 22 22 20 20 22 24 28 24 23 28 35 41 44 42 44
27 24 20 18 17 16 18 20 16 13 5 5 6 8 10 10 10 10 5 3 5 4 16 21 20 6 10 8 9 9 10 7 5 4 7 11 41 42 22 21 21 22 17 20 21 25 20 22 28 29 36 39 41 41
22 23 25 24 21 18 21 19 17 8 6 8 9 10 12 16 14 11 8 5 2 13 16 23 16 10 11 9 9 9 7 2 7 7 6 36 45 30 19 17 19 19 16 16 17 20 16 19 28 28 29 33 32 35
17 21 26 24 22 19 18 18 18 11 7 9 14 12 18 15 17 17 17 14 12 10 17 11 7 8 10 8 8 9 8 2 1 4 10 29 49 22 14 12 13 15 14 12 12 17 14 16 24 31 28 29 31 28
23 22 24 23 18 13 10 11 12 10 10 10 15 23 29 29 27 27 23 19 9 15 9 7 8 11 7 9 8 3 6 3 2 8 10 23 36 17 9 7 8 11 12 10 8 16 17 15 15 23 29 31 28 33
24 25 22 21 17 11 12 16 9 10 13 22 23 26 26 29 32 33 28 25 18 19 16 13 12 15 12 16 20 11 11 9 5 6 11 23 28 12 5 4 5 8 10 9 8 10 16 13 12 16 19 22 24 25
20 20 22 21 21 14 8 10 13 10 23 26 31 35 35 36 35 34 28 25 25 26 14 12 15 15 23 30 29 21 12 11 6 2 14 23 31 11 6 2 4 4 7 10 8 11 12 12 13 14 18 17 22 24
17 14 11 15 24 13 7 8 12 11 12 15 24 29 30 33 31 31 32 29 30 19 19 13 18 39 29 27 31 30 22 24 18 12 18 32 27 13 9 6 3 5 5 7 10 10 8 10 12 15 14 17 18 19
22 22 18 15 19 19 8 9 13 13 18 18 18 25 31 33 36 39 39 35 48 40 26 44 54 57 53 48 41 36 28 26 29 24 22 24 29 18 11 11 10 8 6 5 6 10 12 8 10 10 11 14 17 19
17 20 16 21 14 11 15 18 14 8 12 26 36 34 31 30 34 37 37 43 51 63 70 68 63 56 52 52 52 49 48 44 40 34 32 27 31 20 15 16 14 12 9 7 8 9 11 12 10 14 12 12 15 16
24 23 14 16 15 12 9 16 15 12 9 9 9 9 16 23 28 25 17 29 54 53 50 52 53 51 47 40 36 38 37 35 34 33 32 29 30 24 21 18 20 17 14 12 12 11 12 13 17 13 10 12 12 14
43 17 15 15 24 10 11 15 13 10 11 15 16 28 32 39 36 24 22 44 47 41 43 41 37 39 37 38 41 39 35 34 33 32 31 28 25 26 24 21 19 21 18 15 17 15 13 13 13 13 12 11 11 12
18 19 14 13 19 14 13 10 12 12 12 23 29 23 13 13 8 14 26 39 31 6 9 15 27 38 40 34 30 31 32 34 35 33 29 29 26 22 21 19 18 22 23 22 20 19 17 16 16 15 14 13 12 12
12 22 21 15 16 14 13 10 13 21 21 22 12 12 10 7 10 14 12 14 13 26 35 46 43 36 25 31 25 24 28 32 31 29 27 28 28 25 21 19 21 22 26 26 21 21 19 18 19 20 20 21 23 17
11 16 18 19 8 11 11 18 24 14 15 12 10 8 6 9 10 8 9 16 24 44 55 39 29 24 19 20 24 23 24 28 31 27 21 23 25 21 18 20 20 13 20 24 24 23 20 18 18 19 19 19 23 25
17 11 21 23 22 26 11 9 8 9 8 8 6 10 7 7 7 12 35 76 56 41 16 8 24 18 15 16 20 23 20 24 25 22 16 18 19 18 18 17 17 19 18 20 21 21 21 17 16 16 16 16 17 23
12 13 14 22 23 17 18 15 13 17 23 17 6 7 8 15 44 78 59 48 18 18 18 23 22 21 19 20 17 18 18 25 28 26 24 22 21 20 22 23 22 24 18 19 23 23 23 20 18 16 16 13 13 17
13 20 14 13 13 15 25 31 24 27 27 31 33 35 44 53 60 42 36 23 25 23 20 16 16 20 21 19 20 23 20 18 14 13 15 19 17 18 19 19 18 17 15 15 17 25 27 26 22 20 15 13 12 13
9 16 11 11 10 24 39 38 31 27 30 36 36 40 44 25 23 54 55 41 29 32 30 24 23 23 26 25 25 26 24 19 20 22 23 19 15 15 16 16 14 11 10 10 7 7 12 23 24 20 13 13 13 12
14 19 10 8 11 7 6 10 8 12 9 7 7 10 10 4 16 35 52 43 33 32 30 24 23 23 22 27 30 33 30 25 25 21 15 10 10 11 12 14 16 15 12 9 6 6 9 18 20 15 14 13 11 13
7 15 22 10 3 2 7 8 7 5 10 11 17 20 19 15 13 34 28 33 26 21 24 27 29 33 35 32 29 27 24 22 19 16 15 13 11 10 8 7 12 14 12 10 8 8 12 14 16 17 15 16 19 19
Wind_Direction_500mb
273 284 294 299 300 305 310 315 319 321 323 324 326 328 328 330 335 333 314 292 261 269 284 275 272 274 279 269 269 296 318 194 279 270 308 309 292 292 300 281 292 290 293 301 301 303 289 337 343 335 305 304 303 306
277 291 290 291 293 300 304 309 314 318 319 322 323 323 324 324 338 327 319 306 279 261 267 285 280 270 259 260 273 270 259 306 305 290 310 330 273 286 285 290 317 285 257 286 287 282 300 315 325 320 320 304 308 308
268 270 275 283 289 293 299 305 310 312 316 318 319 319 318 318 318 312 304 306 305 286 303 282 283 293 261 244 241 239 247 232 240 254 283 281 270 254 278 287 297 297 303 270 291 272 312 321 325 326 317 314 315 318
268 265 271 275 280 288 295 301 307 313 315 315 316 316 315 313 309 307 292 288 281 293 285 299 319 300 290 262 240 240 246 260 272 296 273 258 267 234 263 281 289 283 289 279 284 298 324 312 325 319 321 326 328 333
257 257 262 268 275 285 293 300 305 309 314 314 312 309 308 311 311 312 295 276 261 251 287 299 307 311 302 273 250 232 234 243 253 233 224 240 257 267 259 275 272 285 294 304 302 327 307 308 317 324 327 330 335 336
248 250 256 263 273 283 291 297 305 306 307 305 304 303 307 309 311 326 273 245 180 301 306 301 305 300 291 291 271 244 236 235 219 207 224 238 252 257 268 282 296 343 309 305 289 307 312 314 318 328 336 344 345 351
243 247 254 263 273 282 289 297 303 304 306 306 304 302 302 301 297 264 281 226 223 303 279 288 282 274 311 305 262 227 209 209 214 229 238 249 262 191 249 264 239 318 324 321 325 326 327 332 326 340 354 358 1 11
243 248 255 264 274 284 293 301 304 307 310 306 302 299 297 294 290 283 273 244 242 258 246 272 285 297 351 320 321 226 211 210 218 232 237 252 240 209 258 265 328 347 332 327 337 346 335 330 337 351 4 8 6 9
243 251 257 264 275 285 295 303 308 309 312 308 307 304 298 278 227 253 215 256 264 236 278 241 283 306 333 326 308 266 226 230 218 214 236 214 212 230 326 343 354 356 348 332 335 342 345 346 347 358 6 7 5 7
246 251 260 269 278 286 297 307 311 314 317 316 317 289 239 215 241 290 287 217 207 216 218 254 293 275 316 330 290 320 251 258 241 213 184 212 255 356 12 20 9 357 346 342 345 345 347 349 352 1 7 9 16 19
246 252 258 266 275 288 303 314 313 319 331 341 309 262 267 277 285 236 251 228 173 222 217 244 248 281 291 262 270 256 303 288 278 228 246 216 130 359 1 13 3 358 353 351 348 345 349 347 353 360 11 17 25 31
248 253 259 265 273 285 307 315 317 325 308 298 291 295 306 264 208 237 223 214 214 265 152 243 296 291 283 238 253 253 261 277 256 259 250 165 20 349 355 2 358 357 354 354 351 356 357 6 6 8 19 26 30 46
254 257 259 259 263 280 302 309 309 308 313 307 284 260 236 221 244 227 208 196 144 209 251 321 312 302 261 240 246 264 249 234 289 338 307 63 1 349 346 353 354 356 359 354 354 2 9 18 21 22 29 41 50 55
241 243 245 250 258 272 285 298 297 309 302 263 242 252 227 196 237 221 249 133 111 311 326 322 314 282 278 240 231 253 246 275 270 42 15 322 334 332 337 348 352 356 5 356 353 4 22 32 36 32 40 44 51 63
240 240 241 246 249 267 276 275 273 270 252 253 234 245 228 245 265 255 231 268 11 316 319 317 297 247 269 249 243 283 259 73 43 355 285 314 324 329 343 350 354 0 4 360 355 11 32 47 47 40 42 50 60 60
234 246 248 242 250 261 268 249 243 220 241 240 236 253 245 265 254 228 235 265 308 305 308 265 271 267 252 256 253 252 307 171 248 245 259 334 338 332 344 354 359 6 20 14 15 24 58 64 61 58 53 58 59 72
225 231 245 247 237 234 223 200 187 215 236 235 242 247 259 274 279 283 282 278 257 282 277 290 252 241 302 257 252 221 255 102 121 331 334 351 342 329 333 2 12 17 32 41 41 42 60 59 73 64 64 61 69 68
220 243 243 250 195 195 203 199 220 231 242 247 251 261 258 260 273 273 269 263 250 260 239 240 289 244 243 241 249 227 233 162 142 14 359 5 3 328 313 359 32 31 33 53 77 53 47 54 66 67 78 75 79 67
237 251 254 202 186 192 205 224 219 256 240 256 264 269 270 270 268 267 264 257 244 234 221 223 238 240 238 248 265 271 228 218 197 141 13 356 352 316 269 234 118 71 47 43 80 80 83 71 65 93 93 97 79 78
238 242 214 195 187 195 231 230 215 253 267 257 271 270 270 266 269 266 263 249 227 200 212 228 236 244 255 261 253 266 269 244 231 286 332 332 332 329 246 222 172 140 87 64 57 90 93 77 94 93 104 113 106 87
210 199 201 187 199 210 254 229 236 246 272 271 278 282 282 276 266 262 257 243 235 218 239 245 252 253 252 255 254 257 261 259 267 279 290 292 307 315 234 219 193 172 138 104 82 81 81 98 128 110 114 135 112 111
202 189 188 206 218 220 244 230 237 296 255 264 284 270 267 274 277 272 259 241 241 239 238 248 254 257 258 255 257 256 258 260 261 262 261 262 274 294 220 207 199 195 183 156 131 120 111 99 97 108 120 144 147 139
210 202 198 201 210 231 243 199 217 229 249 251 244 254 260 263 271 275 256 252 247 248 256 258 259 256 258 257 252 249 242 239 238 238 239 244 259 260 230 214 210 203 191 183 166 147 141 156 133 109 101 95 119 153
202 185 200 208 204 233 196 207 213 236 245 257 261 267 275 277 272 259 260 263 269 270 264 260 255 251 247 242 239 238 234 225 225 227 226 227 231 225 214 210 209 208 199 189 183 176 174 161 177 152 143 132 127 129
177 199 209 209 199 218 209 204 210 216 253 260 269 269 259 266 249 262 267 272 267 203 338 315 270 247 239 237 234 229 217 207 208 210 214 215 219 214 203 206 207 206 202 195 192 191 192 195 194 190 185 177 170 159
207 201 199 211 192 208 205 243 228 222 251 275 260 259 282 250 243 254 253 258 249 271 279 292 291 295 251 224 216 202 196 196 200 209 210 206 205 202 195 197 199 206 206 204 204 205 205 208 210 209 208 206 198 188
223 205 205 214 229 214 247 256 265 274 269 255 261 273 256 252 251 241 246 279 282 285 292 285 266 234 237 207 194 189 189 198 200 206 192 194 199 206 202 200 201 204 204 201 205 209 211 214 214 215 214 215 216 208
232 233 207 203 214 220 234 249 247 232 240 252 225 217 245 248 262 293 293 304 308 319 320 147 169 170 188 180 182 181 181 178 179 176 185 201 202 201 199 195 187 185 186 193 196 202 209 215 219 217 214 216 220 215
227 221 223 229 216 221 221 220 232 225 224 239 246 249 259 264 278 293 318 339 33 64 103 131 137 142 137 126 138 155 164 167 174 179 183 181 185 196 192 190 200 199 194 204 201 200 212 214 214 211 205 206 211 211
235 207 225 231 212 224 227 212 238 244 249 253 257 267 275 281 303 348 352 43 57 97 129 134 115 135 147 147 133 130 135 147 158 167 158 158 151 159 171 180 185 189 194 201 209 225 224 220 215 212 205 193 195 202
232 198 214 239 263 249 248 246 250 256 268 274 272 265 273 287 349 28 48 55 68 81 82 89 94 104 118 133 139 129 113 105 121 120 123 120 120 141 154 167 173 177 180 182 200 238 239 213 203 193 205 216 205 200
199 199 212 224 240 267 129 182 180 201 252 282 41 15 342 322 26 15 24 42 68 72 69 75 89 89 94 112 119 120 114 114 119 119 123 137 177 201 212 216 224 222 211 201 209 208 207 185 185 206 205 195 189 178
246 201 215 249 245 145 149 179 169 97 47 33 20 16 19 27 39 11 22 22 38 72 80 89 88 99 106 110 113 106 99 95 94 97 101 103 105 120 117 169 183 170 153 142 147 158 175 198 198 181 175 176 175 170
Wind_Speed_850mb
37 34 32 35 34 34 34 35 35 35 34 33 32 32 34 33 31 34 24 17 20 21 48 47 40 39 30 31 14 25 21 7 9 7 7 7 8 9 16 23 25 14 12 15 15 30 19 54 33 14 26 60 77 86
32 29 32 34 36 35 34 34 35 36 36 34 34 33 32 31 24 27 25 15 17 33 44 52 65 63 62 55 47 21 18 16 8 7 4 7 9 8 12 12 22 9 9 15 14 20 57 63 39 34 64 67 82 86
32 30 34 33 32 33 33 33 33 34 33 33 34 34 34 32 24 17 32 29 26 29 60 21 17 13 19 28 30 28 22 22 14 21 14 6 13 5 9 17 32 21 33 18 30 23 41 51 47 63 69 74 90 89
35 31 31 32 32 32 32 33 33 34 34 34 34 34 34 33 31 27 25 19 27 20 15 7 14 40 47 45 37 44 52 33 25 16 7 6 7 11 9 24 30 34 29 26 33 43 45 38 56 66 77 88 81 88
34 31 31 31 30 31 32 33 34 35 35 36 35 34 33 33 35 35 25 22 23 19 12 42 59 13 15 14 20 30 42 41 33 10 9 7 13 16 16 22 19 17 21 18 26 27 20 48 69 71 72 82 85 79
32 30 30 29 29 29 32 34 35 37 36 35 34 34 34 32 33 25 9 6 12 8 16 10 27 14 16 18 26 28 31 28 21 12 12 15 32 14 6 10 18 20 24 27 15 43 50 54 64 63 67 78 77 67
31 30 29 28 28 30 32 34 37 40 39 38 36 34 35 35 32 13 12 8 16 21 11 15 12 6 24 19 8 9 19 16 18 10 14 24 34 17 6 13 2 30 31 32 28 43 30 43 49 67 66 73 67 53
30 29 28 27 28 30 33 35 38 40 38 36 36 34 35 37 33 24 13 13 15 15 12 7 11 19 8 13 15 9 13 16 18 12 14 18 6 14 10 21 21 28 33 22 41 26 32 39 49 61 67 73 69 60
28 28 27 26 27 29 33 36 37 36 34 33 31 31 27 7 6 6 13 17 19 15 10 8 9 10 18 20 23 16 11 8 15 10 9 8 6 10 16 31 29 25 28 38 39 32 42 36 50 57 64 72 65 59
27 27 26 25 26 28 31 34 34 32 28 26 22 5 7 9 10 14 10 8 11 11 16 11 14 11 23 17 9 15 10 7 6 13 10 8 8 12 24 19 19 26 29 33 38 37 44 46 51 55 58 61 54 46
27 26 24 24 25 26 28 29 29 28 20 11 7 7 14 15 11 8 8 11 10 8 12 10 17 17 14 8 5 8 8 8 6 2 5 7 3 22 18 17 21 23 24 25 24 28 29 28 38 47 51 55 50 39
26 25 24 23 23 22 21 23 24 16 12 14 19 24 14 5 8 8 7 8 10 5 7 8 14 23 13 10 8 9 7 5 10 3 5 2 11 31 19 21 22 22 22 24 28 30 27 26 33 38 43 49 48 40
24 22 21 20 20 17 17 22 21 19 18 11 3 6 6 7 9 9 11 8 5 5 4 14 17 10 7 12 11 6 9 12 9 4 5 7 29 38 21 22 22 20 20 22 24 28 24 23 28 35 41 44 42 44
27 24 20 18 17 16 18 20 16 13 5 5 6 8 10 10 10 10 5 3 5 4 16 21 20 6 10 8 9 9 10 7 5 4 7 11 41 42 22 21 21 22 17 20 21 25 20 22 28 29 36 39 41 41
22 23 25 24 21 18 21 19 17 8 6 8 9 10 12 16 14 11 8 5 2 13 16 23 16 10 11 9 9 9 7 2 7 7 6 36 45 30 19 17 19 19 16 16 17 20 16 19 28 28 29 33 32 35
17 21 26 24 22 19 18 18 18 11 7 9 14 12 18 15 17 17 17 14 12 10 17 11 7 8 10 8 8 9 8 2 1 4 10 29 49 22 14 12 13 15 14 12 12 17 14 16 24 31 28 29 31 28
23 22 24 23 18 13 10 11 12 10 10 10 15 23 29 29 27 27 23 19 9 15 9 7 8 11 7 9 8 3 6 3 2 8 10 23 36 17 9 7 8 11 12 10 8 16 17 15 15 23 29 31 28 33
24 25 22 21 17 11 12 16 9 10 13 22 23 26 26 29 32 33 28 25 18 19 16 13 12 15 12 16 20 11 11 9 5 6 11 23 28 12 5 4 5 8 10 9 8 10 16 13 12 16 19 22 24 25
20 20 22 21 21 14 8 10 13 10 23 26 31 35 35 36 35 34 28 25 25 26 14 12 15 15 23 30 29 21 12 11 6 2 14 23 31 11 6 2 4 4 7 10 8 11 12 12 13 14 18 17 22 24
17 14 11 15 24 13 7 8 12 11 12 15 24 29 30 33 31 31 32 29 30 19 19 13 18 39 29 27 31 30 22 24 18 12 18 32 27 13 9 6 3 5 5 7 10 10 8 10 12 15 14 17 18 19
22 22 18 15 19 19 8 9 13 13 18 18 18 25 31 33 36 39 39 35 48 40 26 44 54 57 53 48 41 36 28 26 29 24 22 24 29 18 11 11 10 8 6 5 6 10 12 8 10 10 11 14 17 19
17 20 16 21 14 11 15 18 14 8 12 26 36 34 31 30 34 37 37 43 51 63 70 68 63 56 52 52 52 49 48 44 40 34 32 27 31 20 15 16 14 12 9 7 8 9 11 12 10 14 12 12 15 16
24 23 14 16 15 12 9 16 15 12 9 9 9 9 16 23 28 25 17 29 54 53 50 52 53 51 47 40 36 38 37 35 34 33 32 29 30 24 21 18 20 17 14 12 12 11 12 13 17 13 10 12 12 14
43 17 15 15 24 10 11 15 13 10 11 15 16 28 32 39 36 24 22 44 47 41 43 41 37 39 37 38 41 39 35 34 33 32 31 28 25 26 24 21 19 21 18 15 17 15 13 13 13 13 12 11 11 12
18 19 14 13 19 14 13 10 12 12 12 23 29 23 13 13 8 14 26 39 31 6 9 15 27 38 40 34 30 31 32 34 35 33 29 29 26 22 21 19 18 22 23 22 20 19 17 16 16 15 14 13 12 12
12 22 21 15 16 14 13 10 13 21 21 22 12 12 10 7 10 14 12 14 13 26 35 46 43 36 25 31 25 24 28 32 31 29 27 28 28 25 21 19 21 22 26 26 21 21 19 18 19 20 20 21 23 17
11 16 18 19 8 11 11 18 24 14 15 12 10 8 6 9 10 8 9 16 24 44 55 39 29 24 19 20 24 23 24 28 31 27 21 23 25 21 18 20 20 13 20 24 24 23 20 18 18 19 19 19 23 25
17 11 21 23 22 26 11 9 8 9 8 8 6 10 7 7 7 12 35 76 56 41 16 8 24 18 15 16 20 23 20 24 25 22 16 18 19 18 18 17 17 19 18 20 21 21 21 17 16 16 16 16 17 23
12 13 14 22 23 17 18 15 13 17 23 17 6 7 8 15 44 78 59 48 18 18 18 23 22 21 19 20 17 18 18 25 28 26 24 22 21 20 22 23 22 24 18 19 23 23 23 20 18 16 16 13 13 17
13 20 14 13 13 15 25 31 24 27 27 31 33 35 44 53 60 42 36 23 25 23 20 16 16 20 21 19 20 23 20 18 14 13 15 19 17 18 19 19 18 17 15 15 17 25 27 26 22 20 15 13 12 13
9 16 11 11 10 24 39 38 31 27 30 36 36 40 44 25 23 54 55 41 29 32 30 24 23 23 26 25 25 26 24 19 20 22 23 19 15 15 16 16 14 11 10 10 7 7 12 23 24 20 13 13 13 12
14 19 10 8 11 7 6 10 8 12 9 7 7 10 10 4 16 35 52 43 33 32 30 24 23 23 22 27 30 33 30 25 25 21 15 10 10 11 12 14 16 15 12 9 6 6 9 18 20 15 14 13 11 13
7 15 22 10 3 2 7 8 7 5 10 11 17 20 19 15 13 34 28 33 26 21 24 27 29 33 35 32 29 27 24 22 19 16 15 13 11 10 8 7 12 14 12 10 8 8 12 14 16 17 15 16 19 19
Wind_Direction_850mb
273 284 294 299 300 305 310 315 319 321 323 324 326 328 328 330 335 333 314 292 261 269 284 275 272 274 279 269 269 296 318 194 279 270 308 309 292 292 300 281 292 290 293 301 301 303 289 337 343 335 305 304 303 306
277 291 290 291 293 300 304 309 314 318 319 322 323 323 324 324 338 327 319 306 279 261 267 285 280 270 259 260 273 270 259 306 305 290 310 330 273 286 285 290 317 285 257 286 287 282 300 315 325 320 320 304 308 308
268 270 275 283 289 293 299 305 310 312 316 318 319 319 318 318 318 312 304 306 305 286 303 282 283 293 261 244 241 239 247 232 240 254 283 281 270 254 278 287 297 297 303 270 291 272 312 321 325 326 317 314 315 318
268 265 271 275 280 288 295 301 307 313 315 315 316 316 315 313 309 307 292 288 281 293 285 299 319 300 290 262 240 240 246 260 272 296 273 258 267 234 263 281 289 283 289 279 284 298 324 312 325 319 321 326 328 333
257 257 262 268 275 285 293 300 305 309 314 314 312 309 308 311 311 312 295 276 261 251 287 299 307 311 302 273 250 232 234 243 253 233 224 240 257 267 259 275 272 285 294 304 302 327 307 308 317 324 327 330 335 336
248 250 256 263 273 283 291 297 305 306 307 305 304 303 307 309 311 326 273 245 180 301 306 301 305 300 291 291 271 244 236 235 219 207 224 238 252 257 268 282 296 343 309 305 289 307 312 314 318 328 336 344 345 351
243 247 254 263 273 282 289 297 303 304 306 306 304 302 302 301 297 264 281 226 223 303 279 288 282 274 311 305 262 227 209 209 214 229 238 249 262 191 249 264 239 318 324 321 325 326 327 332 326 340 354 358 1 11
243 248 255 264 274 284 293 301 304 307 310 306 302 299 297 294 290 283 273 244 242 258 246 272 285 297 351 320 321 226 211 210 218 232 237 252 240 209 258 265 328 347 332 327 337 346 335 330 337 351 4 8 6 9
243 251 257 264 275 285 295 303 308 309 312 308 307 304 298 278 227 253 215 256 264 236 278 241 283 306 333 326 308 266 226 230 218 214 236 214 212 230 326 343 354 356 348 332 335 342 345 346 347 358 6 7 5 7
246 251 260 269 278 286 297 307 311 314 317 316 317 289 239 215 241 290 287 217 207 216 218 254 293 275 316 330 290 320 251 258 241 213 184 212 255 356 12 20 9 357 346 342 345 345 347 349 352 1 7 9 16 19
246 252 258 266 275 288 303 314 313 319 331 341 309 262 267 277 285 236 251 228 173 222 217 244 248 281 291 262 270 256 303 288 278 228 246 216 130 359 1 13 3 358 353 351 348 345 349 347 353 360 11 17 25 31
248 253 259 265 273 285 307 315 317 325 308 298 291 295 306 264 208 237 223 214 214 265 152 243 296 291 283 238 253 253 261 277 256 259 250 165 20 349 355 2 358 357 354 354 351 356 357 6 6 8 19 26 30 46
254 257 259 259 263 280 302 309 309 308 313 307 284 260 236 221 244 227 208 196 144 209 251 321 312 302 261 240 246 264 249 234 289 338 307 63 1 349 346 353 354 356 359 354 354 2 9 18 21 22 29 41 50 55
241 243 245 250 258 272 285 298 297 309 302 263 242 252 227 196 237 221 249 133 111 311 326 322 314 282 278 240 231 253 246 275 270 42 15 322 334 332 337 348 352 356 5 356 353 4 22 32 36 32 40 44 51 63
240 240 241 246 249 267 276 275 273 270 252 253 234 245 228 245 265 255 231 268 11 316 319 317 297 247 269 249 243 283 259 73 43 355 285 314 324 329 343 350 354 0 4 360 355 11 32 47 47 40 42 50 60 60
234 246 248 242 250 261 268 249 243 220 241 240 236 253 245 265 254 228 235 265 308 305 308 265 271 267 252 256 253 252 307 171 248 245 259 334 338 332 344 354 359 6 20 14 15 24 58 64 61 58 53 58 59 72
225 231 245 247 237 234 223 200 187 215 236 235 242 247 259 274 279 283 282 278 257 282 277 290 252 241 302 257 252 221 255 102 121 331 334 351 342 329 333 2 12 17 32 41 41 42 60 59 73 64 64 61 69 68
220 243 243 250 195 195 203 199 220 231 242 247 251 261 258 260 273 273 269 263 250 260 239 240 289 244 243 241 249 227 233 162 142 14 359 5 3 328 313 359 32 31 33 53 77 53 47 54 66 67 78 75 79 67
237 251 254 202 186 192 205 224 219 256 240 256 264 269 270 270 268 267 264 257 244 234 221 223 238 240 238 248 265 271 228 218 197 141 13 356 352 316 269 234 118 71 47 43 80 80 83 71 65 93 93 97 79 78
238 242 214 195 187 195 231 230 215 253 267 257 271 270 270 266 269 266 263 249 227 200 212 228 236 244 255 261 253 266 269 244 231 286 332 332 332 329 246 222 172 140 87 64 57 90 93 77 94 93 104 113 106 87
210 199 201 187 199 210 254 229 236 246 272 271 278 282 282 276 266 262 257 243 235 218 239 245 252 253 252 255 254 257 261 259 267 279 290 292 307 315 234 219 193 172 138 104 82 81 81 98 128 110 114 135 112 111
202 189 188 206 218 220 244 230 237 296 255 264 284 270 267 274 277 272 259 241 241 239 238 248 254 257 258 255 257 256 258 260 261 262 261 262 274 294 220 207 199 195 183 156 131 120 111 99 97 108 120 144 147 139
210 202 198 201 210 231 243 199 217 229 249 251 244 254 260 263 271 275 256 252 247 248 256 258 259 256 258 257 252 249 242 239 238 238 239 244 259 260 230 214 210 203 191 183 166 147 141 156 133 109 101 95 119 153
202 185 200 208 204 233 196 207 213 236 245 257 261 267 275 277 272 259 260 263 269 270 264 260 255 251 247 242 239 238 234 225 225 227 226 227 231 225 214 210 209 208 199 189 183 176 174 161 177 152 143 132 127 129
177 199 209 209 199 218 209 204 210 216 253 260 269 269 259 266 249 262 267 272 267 203 338 315 270 247 239 237 234 229 217 207 208 210 214 215 219 214 203 206 207 206 202 195 192 191 192 195 194 190 185 177 170 159
207 201 199 211 192 208 205 243 228 222 251 275 260 259 282 250 243 254 253 258 249 271 279 292 291 295 251 224 216 202 196 196 200 209 210 206 205 202 195 197 199 206 206 204 204 205 205 208 210 209 208 206 198 188
223 205 205 214 229 214 247 256 265 274 269 255 261 273 256 252 251 241 246 279 282 285 292 285 266 234 237 207 194 189 189 198 200 206 192 194 199 206 202 200 201 204 204 201 205 209 211 214 214 215 214 215 216 208
232 233 207 203 214 220 234 249 247 232 240 252 225 217 245 248 262 293 293 304 308 319 320 147 169 170 188 180 182 181 181 178 179 176 185 201 202 201 199 195 187 185 186 193 196 202 209 215 219 217 214 216 220 215
227 221 223 229 216 221 221 220 232 225 224 239 246 249 259 264 278 293 318 339 33 64 103 131 137 142 137 126 138 155 164 167 174 179 183 181 185 196 192 190 200 199 194 204 201 200 212 214 214 211 205 206 211 211
235 207 225 231 212 224 227 212 238 244 249 253 257 267 275 281 303 348 352 43 57 97 129 134 115 135 147 147 133 130 135 147 158 167 158 158 151 159 171 180 185 189 194 201 209 225 224 220 215 212 205 193 195 202
232 198 214 239 263 249 248 246 250 256 268 274 272 265 273 287 349 28 48 55 68 81 82 89 94 104 118 133 139 129 113 105 121 120 123 120 120 141 154 167 173 177 180 182 200 238 239 213 203 193 205 216 205 200
199 199 212 224 240 267 129 182 180 201 252 282 41 15 342 322 26 15 24 42 68 72 69 75 89 89 94 112 119 120 114 114 119 119 123 137 177 201 212 216 224 222 211 201 209 208 207 185 185 206 205 195 189 178
246 201 215 249 245 145 149 179 169 97 47 33 20 16 19 27 39 11 22 22 38 72 80 89 88 99 106 110 113 106 99 95 94 97 101 103 105 120 117 169 183 170 153 142 147 158 175 198 198 181 175 176 175 170